[[{"header":{"parameterUnit":"m.s-1","parameterCategory":1,"la1":30.2992,"la2":30.254,"lo1":-89.0895,"lo2":-89.0443,"dy":0.0025,"dx":0.0025,"nx":19,"ny":19,"refTime":"2026-05-21T09:00:00:Z","depth":0,"parameterNumber":2,"parameterNumberName":"U-component_of_WINDS"},"data":[0,0,0,-1.3221,-1.3225,-1.3387,-1.3388,-1.3597,-1.3599,0,0,0,0,0,0,0,0,0,0,0,-1.3168,-1.3169,-1.3221,-1.3225,-1.3387,-1.3388,-1.3597,-1.3599,0,0,0,0,0,0,0,0,0,0,0,-1.3167,-1.3169,-1.317,-1.3225,-1.3387,-1.3388,-1.3596,-1.3475,0,0,0,0,0,0,0,0,0,0,-1.3318,-1.3261,-1.3168,-1.317,-1.3226,-1.3387,-1.3388,-1.3469,-1.3482,-1.3522,0,-1.3551,0,-1.3578,-1.3612,-1.3613,0,0,0,-1.3231,-1.325,-1.3298,-1.317,-1.3228,-1.3386,-1.3315,-1.3477,-1.3492,-1.354,-1.3554,-1.3562,-1.3581,-1.3614,-1.3615,-1.3813,-1.3813,0,0,-1.3222,-1.3196,-1.3287,-1.3307,-1.3275,-1.331,-1.332,-1.3486,-1.3501,-1.3554,-1.3567,-1.3585,-1.3615,-1.3617,-1.3812,-1.3813,0,0,0,-1.3192,-1.3189,-1.3233,-1.3299,-1.3327,-1.3315,-1.3326,-1.3494,-1.351,-1.3569,-1.3587,-1.3616,-1.3619,-1.3811,-1.3812,-1.3817,0,0,0,-1.3187,-1.3172,-1.3229,-1.3215,-1.3324,-1.3411,-1.3331,-1.3499,-1.3518,-1.3586,-1.3616,-1.3621,-1.3811,-1.3812,-1.3815,-1.3824,0,0,0,-1.316,-1.3169,-1.3189,-1.3213,-1.3281,-1.3409,-1.3435,-1.3503,-1.3529,-1.3613,-1.3621,-1.381,-1.3812,-1.3814,-1.3821,-1.3868,0,0,0,-1.3124,-1.3193,-1.3189,-1.3275,-1.3279,-1.3409,-1.3434,-1.3534,-1.3606,-1.3617,-1.3811,-1.3812,-1.3813,-1.382,-1.3866,-1.3901,-1.3912,0,0,-1.3197,-1.3201,-1.3254,-1.3255,-1.3377,-1.3386,-1.3513,-1.3607,-1.3643,-1.3756,-1.3761,-1.3816,-1.3821,-1.3867,-1.399,-1.3999,0,0,0,-1.3269,-1.3306,-1.3345,-1.341,-1.348,-1.3544,-1.362,-1.3657,-1.3753,-1.3693,-1.3846,-1.3851,-1.3879,-1.3897,-1.3905,-1.3932,-1.382,-1.3819,-1.3819,-1.3335,-1.3373,-1.3464,-1.3521,-1.3586,-1.3664,-1.3722,-1.3785,-1.3807,-1.3843,-1.3876,-1.3945,-1.3965,-1.3971,-1.3999,-1.3899,-1.3899,-1.3899,-1.3899,-1.3446,-1.3506,-1.3532,-1.3628,-1.3671,-1.3756,-1.3838,-1.3851,-1.3939,-1.3923,-1.395,-1.3928,-1.398,-1.4006,-1.39,-1.3899,-1.3899,-1.3899,-1.3899,-1.3493,-1.3528,-1.3568,-1.3667,-1.3741,-1.3801,-1.3884,-1.3921,-1.3958,-1.3984,-1.4025,-1.4025,-1.403,-1.4001,-1.4001,-1.4001,-1.4002,-1.4002,-1.4002,-1.3525,-1.357,-1.3631,-1.3713,-1.3761,-1.383,-1.3913,-1.3964,-1.403,-1.4051,-1.4052,-1.4072,-1.3977,-1.3952,-1.4006,-1.4005,-1.4005,-1.4004,-1.4004,-1.3622,-1.3606,-1.3701,-1.3749,-1.385,-1.3923,-1.397,-1.407,-1.4118,-1.4159,-1.4175,-1.4098,-1.4107,-1.4101,-1.408,-1.4164,-1.4164,-1.4164,-1.4164,-1.3661,-1.3668,-1.3774,-1.3848,-1.3926,-1.3978,-1.4092,-1.4159,-1.4228,-1.4261,-1.4256,-1.4232,-1.4225,-1.4238,-1.4229,-1.4211,-1.4326,-1.4326,-1.4326,-1.3723,-1.3739,-1.3824,-1.3885,-1.3968,-1.4041,-1.4149,-1.4239,-1.4315,-1.4333,-1.4289,-1.4282,-1.4245,-1.4231,-1.4246,-1.4231,-1.4198,0,0]},{"header":{"parameterUnit":"m.s-1","parameterCategory":1,"la1":30.2992,"la2":30.254,"lo1":-89.0895,"lo2":-89.0443,"dy":0.0025,"dx":0.0025,"nx":19,"ny":19,"refTime":"2026-05-21T09:00:00:Z","depth":0,"parameterNumber":3,"parameterNumberName":"V-component_of_WINDS"},"data":[0,0,0,2.4665,2.4661,2.4471,2.447,2.4255,2.4253,0,0,0,0,0,0,0,0,0,0,0,2.4744,2.4743,2.4665,2.4661,2.4471,2.447,2.4255,2.4253,0,0,0,0,0,0,0,0,0,0,0,2.4744,2.4744,2.4743,2.466,2.4472,2.447,2.4255,2.4387,0,0,0,0,0,0,0,0,0,0,2.4566,2.4664,2.4744,2.4743,2.4659,2.4472,2.447,2.4393,2.4379,2.4354,0,2.4344,0,2.4296,2.4241,2.424,0,0,0,2.4642,2.4676,2.4604,2.4743,2.4658,2.4472,2.4552,2.4385,2.4369,2.4336,2.4341,2.4332,2.4292,2.424,2.4239,2.4172,2.4173,0,0,2.4652,2.4721,2.4616,2.4596,2.4634,2.4558,2.4546,2.4375,2.4382,2.434,2.4326,2.4289,2.4238,2.4237,2.4171,2.4172,0,0,0,2.4695,2.4729,2.4661,2.4605,2.457,2.4553,2.4539,2.439,2.4362,2.4324,2.4286,2.4237,2.4235,2.4171,2.4172,2.4267,0,0,0,2.4701,2.4754,2.4667,2.4706,2.4574,2.4479,2.4559,2.4374,2.4353,2.4287,2.4237,2.4233,2.417,2.4171,2.4263,2.4299,0,0,0,2.4748,2.4759,2.474,2.471,2.4632,2.448,2.4442,2.4368,2.4331,2.424,2.4233,2.417,2.4171,2.4259,2.4293,2.43,0,0,0,2.4817,2.4827,2.4743,2.4738,2.4634,2.4543,2.4442,2.4369,2.4303,2.4236,2.417,2.4172,2.4258,2.4289,2.4297,2.4317,2.4333,0,0,2.4867,2.4835,2.4827,2.4746,2.4688,2.4566,2.4519,2.4391,2.4317,2.4223,2.422,2.4264,2.4293,2.4299,2.4402,2.4416,0,0,0,2.4865,2.486,2.4829,2.4772,2.4678,2.4598,2.4471,2.4423,2.434,2.4285,2.4268,2.4282,2.4283,2.4289,2.43,2.4295,2.4178,2.4178,2.4178,2.5031,2.494,2.4918,2.4803,2.4748,2.4618,2.4562,2.4473,2.4395,2.4393,2.4363,2.4438,2.4448,2.4456,2.4451,2.4368,2.4369,2.4369,2.4369,2.5092,2.5068,2.4966,2.4908,2.4809,2.4757,2.4629,2.4575,2.4508,2.4453,2.4448,2.4394,2.4473,2.4464,2.4375,2.4374,2.4374,2.4373,2.4373,2.5189,2.5161,2.5106,2.5012,2.4949,2.4829,2.4771,2.4682,2.4596,2.4593,2.455,2.4548,2.4532,2.4579,2.458,2.458,2.458,2.458,2.458,2.531,2.5244,2.5208,2.5109,2.5059,2.4981,2.4849,2.4794,2.4711,2.465,2.4649,2.4568,2.45,2.4483,2.4584,2.4583,2.4583,2.4582,2.4582,2.5401,2.5366,2.5312,2.5262,2.5135,2.5076,2.4964,2.4861,2.4803,2.4776,2.4695,2.4662,2.462,2.4611,2.4596,2.4719,2.4719,2.4719,2.4719,2.548,2.5453,2.5375,2.5301,2.5218,2.5111,2.5044,2.4939,2.4824,2.4781,2.475,2.4724,2.4718,2.468,2.4668,2.4653,2.4788,2.4788,2.4788,2.5529,2.5489,2.5453,2.5346,2.524,2.5148,2.5082,2.4994,2.4856,2.4789,2.4744,2.4741,2.4697,2.4688,2.4619,2.4604,2.4573,0,0]}]]